Regional Weather Roundup
Issued by NWS

Home | Current Version | Previous Version | Text Only | Print | Product List | Glossary On
Versions: 1 2 3 4 5 6 7 8 9 10 11 12 13 14 15 16 17 18 19 20 21 22 23 24 25 26 27 28 29 30 31 32 33 34 35 36 37 38 39 40 41 42 43 44 45 46 47 48 49 50
000
ASMX46 KSGX 230104
RWRMX

MEXICAN WEATHER ROUNDUP
NATIONAL WEATHER SERVICE SAN DIEGO CA
600 PM PDT SAT JUL 22 2017

BAJA CALIFORNIA

CITY           SKY/WX    TMP DP  RH WIND       PRES   REMARKS
ENSENADA NW      N/A     71  32  23 W1        29.84F
LA PAZ         MOSUNNY   97  48  19 W8        29.80R
LORETO         PTSUNNY   97  82  63 CALM      29.76R HX 121
MEXICALI         N/A    N/A N/A N/A MISG        N/A
S.J. DEL CABO  PTSUNNY   90  63  40 NE13      29.80S
TIJUANA        SUNNY     75  61  60 W10       29.88F

NORTHWESTERN MEXICO

CITY           SKY/WX    TMP DP  RH WIND       PRES   REMARKS
CHIHUAHUA      PTSUNNY   75  59  57 CALM      30.07S
CULIACAN       PTSUNNY   93  73  52 SW7       29.79R HX 102
GUAYMAS        PTSUNNY   93  75  55 SW8       29.75S HX 104
HERMOSILLO     PTSUNNY   93  68  43 CALM      29.85F HX  97
JUAREZ         PTSUNNY   79  64  61 SW9       30.02F
LOS MOCHIS     PTSUNNY   88  70  55 SW12      29.80R
OBREGON        MOSUNNY   95  63  34 SW5       29.76S HX  96

NORTHEASTERN MEXICO

CITY           SKY/WX    TMP DP  RH WIND       PRES   REMARKS
MATAMOROS      MOCLDY    88  75  66 SE14      29.88R HX  97
MONCLOVA         N/A    N/A N/A N/A MISG        N/A
MONTERREY      PTCLDY    97  55  24 SE14      29.81S HX  95
NUEVO LAREDO   CLEAR    102  61  25 SE14      29.78F HX 103
PIEDRAS NEGRAS   N/A    N/A N/A N/A MISG        N/A
REYNOSA        PTCLDY    88  63  42 SE12G23   29.84R
SALTILLO       CLEAR     77  64  65 NE9       30.11F
TORREON        MOCLDY    93  57  29 N9        29.92F
VICTORIA         N/A    N/A N/A N/A MISG        N/A

WESTERN MEXICO

CITY           SKY/WX    TMP DP  RH WIND       PRES   REMARKS
AGUASCALIENTES MOCLDY    73  50  43 S7        30.20R
COLIMA           N/A    N/A N/A N/A MISG        N/A
DURANGO        MOCLDY    77  46  33 W5        30.13S
GUADALAJARA    CLOUDY    70  59  68 S3        30.14R
MANZANILLO     PTCLDY    90  81  74 W12       29.83R HX 108
MAZATLAN       PTSUNNY   88  73  62 NW13      29.81S HX  96
PTO. VALLARTA  MOCLDY    88  77  70 SW9       29.81R HX 100
TEPIC            N/A    N/A N/A N/A MISG        N/A
URUAPAN          N/A    N/A N/A N/A MISG        N/A
ZACATECAS      PTCLDY    73  46  38 S12       30.21R

CENTRAL MEXICO

CITY           SKY/WX    TMP DP  RH WIND       PRES   REMARKS
CUERNAVACA       N/A    N/A N/A N/A MISG        N/A
LEON           MOCLDY    68  57  68 CALM      30.23R
MEXICO CITY    LGT RAIN  61  54  77 W10       30.32R
MORELIA        CLOUDY    63  59  88 SW6       30.22R
POZA RICA        N/A    N/A N/A N/A MISG        N/A
PUEBLA         TSTM      57  52  82 W20       30.31R
QUERETARO        N/A    N/A N/A N/A MISG        N/A
S. LUIS POTOSI MOCLDY    75  43  31 E10       30.19S
TAMPICO        CLEAR     84  75  74 E12       29.91S
TOLUCA         TSTM      54  50  87 NE14      30.41R
VERACRUZ       MOCLDY    84  77  79 E5        29.92R

SOUTHERN MEXICO

CITY           SKY/WX    TMP DP  RH WIND       PRES   REMARKS
ACAPULCO       CLOUDY    82  77  83 CALM      29.88R
B. DE HUATULCO   N/A    N/A N/A N/A MISG        N/A
MINATITLAN     MOCLDY    82  73  74 N12       29.88S
OAXACA         MOCLDY    68  63  83 NW3       30.17S
PTO. ESCONDIDO   N/A    N/A N/A N/A MISG        N/A
TAPACHULA      RAIN      82  77  83 CALM      29.89R
TUX. GUTIERREZ MOCLDY    81  68  65 NW15      29.95R
VILLAHERMOSA   MOCLDY    84  68  58 E10       29.91R
ZIHUATANEJO    CLOUDY    79  73  83 N6        29.89R

YUCATAN PENINSULA

CITY           SKY/WX    TMP DP  RH WIND       PRES   REMARKS
CAMPECHE       MOCLDY    88  75  66 NE14      29.92R HX  97
CANCUN         MOCLDY    84  79  84 NE5       30.01S HX  96
CHETUMAL       PTCLDY    86  73  66 SE6       29.97R
C. DEL CARMEN  MOCLDY   N/A N/A N/A NE9       29.92R
COZUMEL        MOCLDY    84  79  84 E3        29.99R HX  96
MERIDA         CLOUDY    86  79  79 NE12      29.98  HX  99

$$





USA.gov is the U.S. government's official web portal to all federal, state and local government web resources and services.